When you browse on this site, cookies collect data to enhance your experience and personalize the content and advertising you see.
Visit our Privacy Policy to learn more. By continuing to use the site, you agree to this use of cookies and data.
  • In Belgien
  • Länderverzeichnis
  • Für 7 Tage
  • Wassertemperatur
  • Satellitenkarten
  • Wetterkarte
  • Widgets
  • user-avatar
    Anmelden

    Stündliche Wetter Serowe

    Heute, 19 Juli, Freitag

    Zeit Temperatur Niederschläge Wind Luftdruck Luftfeuchtigkeit
    00:00 +12°C° 0 mm 1 m/S 669 mmHg 32%
    01:00 +12°C° 0 mm 1 m/S 668 mmHg 32%
    02:00 +11°C° 0 mm 1 m/S 668 mmHg 33%
    03:00 +11°C° 0 mm 1 m/S 668 mmHg 33%
    04:00 +11°C° 0 mm 1 m/S 668 mmHg 33%
    05:00 +11°C° 0 mm 1 m/S 668 mmHg 33%
    06:00 +12°C° 0 mm 1 m/S 668 mmHg 31%
    07:00 +13°C° 0 mm 1 m/S 669 mmHg 28%
    08:00 +15°C° 0 mm 1 m/S 670 mmHg 24%
    09:00 +19°C° 0 mm 2 m/S 670 mmHg 20%
    10:00 +23°C° 0 mm 2 m/S 671 mmHg 16%
    11:00 +26°C° 0 mm 2 m/S 672 mmHg 13%
    12:00 +27°C° 0 mm 2 m/S 671 mmHg 11%
    13:00 +28°C° 0 mm 2 m/S 670 mmHg 10%
    14:00 +29°C° 0 mm 2 m/S 670 mmHg 9%
    15:00 +28°C° 0 mm 2 m/S 669 mmHg 9%
    16:00 +28°C° 0 mm 2 m/S 669 mmHg 9%
    17:00 +27°C° 0 mm 2 m/S 669 mmHg 9%
    18:00 +24°C° 0 mm 2 m/S 668 mmHg 12%
    19:00 +19°C° 0 mm 2 m/S 668 mmHg 15%
    20:00 +16°C° 0 mm 2 m/S 667 mmHg 18%
    21:00 +16°C° 0 mm 2 m/S 667 mmHg 18%
    22:00 +15°C° 0 mm 2 m/S 668 mmHg 18%
    23:00 +15°C° 0 mm 2 m/S 668 mmHg 18%

    Morgen, 20 Juli, Samstag

    Zeit Temperatur Niederschläge Wind Luftdruck Luftfeuchtigkeit
    00:00 +14°C° 0 mm 2 m/S 667 mmHg 18%
    01:00 +13°C° 0 mm 3 m/S 667 mmHg 18%
    02:00 +12°C° 0 mm 3 m/S 667 mmHg 18%
    03:00 +12°C° 0 mm 3 m/S 667 mmHg 19%
    04:00 +12°C° 0 mm 2 m/S 667 mmHg 20%
    05:00 +10°C° 0 mm 2 m/S 667 mmHg 20%
    06:00 +12°C° 0 mm 2 m/S 667 mmHg 19%
    07:00 +13°C° 0 mm 2 m/S 668 mmHg 18%
    08:00 +14°C° 0 mm 2 m/S 669 mmHg 17%
    09:00 +18°C° 0 mm 3 m/S 670 mmHg 14%
    10:00 +21°C° 0 mm 4 m/S 670 mmHg 11%
    11:00 +26°C° 0 mm 4 m/S 671 mmHg 8%
    12:00 +27°C° 0 mm 4 m/S 671 mmHg 8%
    13:00 +28°C° 0 mm 4 m/S 670 mmHg 7%
    14:00 +28°C° 0 mm 4 m/S 669 mmHg 6%
    15:00 +28°C° 0 mm 4 m/S 669 mmHg 7%
    16:00 +27°C° 0 mm 3 m/S 669 mmHg 7%
    17:00 +26°C° 0 mm 3 m/S 669 mmHg 8%
    18:00 +21°C° 0 mm 2 m/S 669 mmHg 12%
    19:00 +18°C° 0 mm 2 m/S 668 mmHg 16%
    20:00 +15°C° 0 mm 1 m/S 668 mmHg 20%
    21:00 +14°C° 0 mm 1 m/S 668 mmHg 22%
    22:00 +13°C° 0 mm 1 m/S 668 mmHg 23%
    23:00 +13°C° 0 mm 1 m/S 669 mmHg 25%

    übermorgen, 21 Juli, Sonntag

    Zeit Temperatur Niederschläge Wind Luftdruck Luftfeuchtigkeit
    00:00 +12°C° 0 mm 1 m/S 669 mmHg 26%
    01:00 +10°C° 0 mm 2 m/S 669 mmHg 27%
    02:00 +10°C° 0 mm 2 m/S 668 mmHg 28%
    03:00 +9°C° 0 mm 2 m/S 669 mmHg 34%
    04:00 +8°C° 0 mm 3 m/S 669 mmHg 40%
    05:00 +7°C° 0 mm 4 m/S 669 mmHg 46%
    06:00 +8°C° 0 mm 4 m/S 670 mmHg 59%
    07:00 +8°C° 0 mm 5 m/S 671 mmHg 72%
    08:00 +9°C° 0 mm 6 m/S 671 mmHg 85%
    09:00 +10°C° 0 mm 6 m/S 672 mmHg 78%
    10:00 +11°C° 0 mm 6 m/S 672 mmHg 71%
    11:00 +12°C° 0 mm 7 m/S 673 mmHg 64%
    12:00 +15°C° 0 mm 6 m/S 672 mmHg 58%
    13:00 +16°C° 0 mm 6 m/S 672 mmHg 51%
    14:00 +17°C° 0 mm 6 m/S 672 mmHg 45%
    15:00 +17°C° 0 mm 6 m/S 671 mmHg 45%
    16:00 +16°C° 0 mm 6 m/S 671 mmHg 46%
    17:00 +16°C° 0 mm 6 m/S 671 mmHg 47%
    18:00 +14°C° 0 mm 5 m/S 671 mmHg 58%
    19:00 +11°C° 0 mm 4 m/S 671 mmHg 68%
    20:00 +9°C° 0 mm 3 m/S 671 mmHg 79%
    21:00 +7°C° 0 mm 4 m/S 671 mmHg 83%
    22:00 +7°C° 0 mm 4 m/S 671 mmHg 86%
    23:00 +6°C° 0 mm 4 m/S 672 mmHg 90%

    22 Juli, Montag

    Zeit Temperatur Niederschläge Wind Luftdruck Luftfeuchtigkeit
    00:00 +6°C° 0 mm 4 m/S 671 mmHg 92%
    01:00 +5°C° 0 mm 3 m/S 671 mmHg 94%
    02:00 +4°C° 0 mm 3 m/S 671 mmHg 96%
    03:00 +5°C° 0 mm 4 m/S 671 mmHg 96%
    04:00 +5°C° 0 mm 4 m/S 671 mmHg 95%
    05:00 +5°C° 0 mm 4 m/S 671 mmHg 95%
    06:00 +5°C° 0 mm 4 m/S 671 mmHg 93%
    07:00 +5°C° 0 mm 4 m/S 671 mmHg 92%
    08:00 +6°C° 0 mm 4 m/S 672 mmHg 91%
    09:00 +8°C° 0 mm 4 m/S 672 mmHg 79%
    10:00 +11°C° 0 mm 4 m/S 672 mmHg 67%
    11:00 +14°C° 0 mm 4 m/S 672 mmHg 56%
    12:00 +17°C° 0 mm 3 m/S 672 mmHg 47%
    13:00 +19°C° 0 mm 3 m/S 671 mmHg 38%
    14:00 +23°C° 0 mm 2 m/S 670 mmHg 29%
    15:00 +23°C° 0 mm 2 m/S 670 mmHg 29%
    16:00 +23°C° 0 mm 2 m/S 670 mmHg 28%
    17:00 +23°C° 0 mm 2 m/S 670 mmHg 27%
    18:00 +19°C° 0 mm 2 m/S 669 mmHg 33%
    19:00 +16°C° 0 mm 2 m/S 669 mmHg 39%
    20:00 +13°C° 0 mm 1 m/S 668 mmHg 46%
    21:00 +12°C° 0 mm 1 m/S 668 mmHg 49%
    22:00 +11°C° 0 mm 1 m/S 668 mmHg 52%
    23:00 +11°C° 0 mm 1 m/S 668 mmHg 55%

    23 Juli, Dienstag

    Zeit Temperatur Niederschläge Wind Luftdruck Luftfeuchtigkeit
    00:00 +10°C° 0 mm 1 m/S 668 mmHg 58%
    01:00 +9°C° 0 mm 1 m/S 667 mmHg 61%
    02:00 +9°C° 0 mm 1 m/S 667 mmHg 64%
    03:00 +8°C° 0 mm 1 m/S 667 mmHg 65%
    04:00 +8°C° 0 mm 1 m/S 667 mmHg 65%
    05:00 +8°C° 0 mm 1 m/S 667 mmHg 66%
    06:00 +9°C° 0 mm 1 m/S 667 mmHg 60%
    07:00 +11°C° 0 mm 1 m/S 668 mmHg 55%
    08:00 +12°C° 0 mm 2 m/S 669 mmHg 49%
    09:00 +16°C° 0 mm 2 m/S 669 mmHg 40%
    10:00 +20°C° 0 mm 2 m/S 670 mmHg 30%
    11:00 +25°C° 0 mm 3 m/S 671 mmHg 21%
    12:00 +26°C° 0 mm 3 m/S 670 mmHg 18%
    13:00 +28°C° 0 mm 4 m/S 669 mmHg 15%
    14:00 +29°C° 0 mm 4 m/S 669 mmHg 12%
    15:00 +28°C° 0 mm 4 m/S 668 mmHg 13%
    16:00 +28°C° 0 mm 4 m/S 668 mmHg 14%
    17:00 +27°C° 0 mm 3 m/S 667 mmHg 14%
    18:00 +24°C° 0 mm 3 m/S 667 mmHg 19%
    19:00 +20°C° 0 mm 3 m/S 667 mmHg 24%
    20:00 +17°C° 0 mm 3 m/S 666 mmHg 29%
    21:00 +17°C° 0 mm 3 m/S 666 mmHg 31%
    22:00 +16°C° 0 mm 3 m/S 667 mmHg 34%
    23:00 +16°C° 0 mm 3 m/S 667 mmHg 36%

    24 Juli, Mittwoch

    Zeit Temperatur Niederschläge Wind Luftdruck Luftfeuchtigkeit
    00:00 +14°C° 0 mm 3 m/S 666 mmHg 36%
    01:00 +14°C° 0 mm 3 m/S 666 mmHg 36%
    02:00 +14°C° 0 mm 3 m/S 666 mmHg 36%
    03:00 +14°C° 0 mm 3 m/S 666 mmHg 35%
    04:00 +14°C° 0 mm 3 m/S 666 mmHg 34%
    05:00 +14°C° 0 mm 3 m/S 666 mmHg 32%
    06:00 +14°C° 0 mm 4 m/S 667 mmHg 31%
    07:00 +15°C° 0 mm 5 m/S 668 mmHg 30%
    08:00 +15°C° 0 mm 6 m/S 669 mmHg 29%
    09:00 +17°C° 0 mm 6 m/S 670 mmHg 25%
    10:00 +19°C° 0 mm 6 m/S 670 mmHg 22%
    11:00 +21°C° 0 mm 6 m/S 671 mmHg 18%
    12:00 +22°C° 0 mm 6 m/S 671 mmHg 17%
    13:00 +23°C° 0 mm 5 m/S 670 mmHg 16%
    14:00 +25°C° 0 mm 5 m/S 670 mmHg 15%
    15:00 +25°C° 0 mm 4 m/S 670 mmHg 15%
    16:00 +23°C° 0 mm 4 m/S 669 mmHg 16%
    17:00 +22°C° 0 mm 3 m/S 669 mmHg 16%
    18:00 +19°C° 0 mm 3 m/S 669 mmHg 19%
    19:00 +16°C° 0 mm 3 m/S 669 mmHg 23%
    20:00 +12°C° 0 mm 3 m/S 669 mmHg 27%
    21:00 +11°C° 0 mm 3 m/S 669 mmHg 26%
    22:00 +10°C° 0 mm 3 m/S 669 mmHg 25%
    23:00 +9°C° 0 mm 3 m/S 669 mmHg 25%
    Mehr zeigen